Location: Pedholt
(56.0260°N, 10.2097°E)
Time: 05:43:06
(UTC+00:00)

Cosmos 2322 Rocket - Pass Details

Date: 14 July 2020
Orbit: 832 x 851 km, 71.0° (Epoch: 14 August)

Event Time Altitude Azimuth Distance (km) Brightness Sun altitude
Rises 00:57:12 0° 321° (NW) 3,402 5.8 -9.9°
Reaches altitude 10° 00:59:54 10° 331° (NNW) 2,468 5.2 -9.8°
Maximum altitude 01:05:00 33° 35° (NE) 1,391 4.2 -9.5°
Drops below altitude 10° 01:10:06 10° 99° (E) 2,471 4.8 -9.2°
Sets 01:12:48 0° 109° (ESE) 3,407 5.4 -9.1°
